When you browse on this site, cookies collect data to enhance your experience and personalize the content and advertising you see.
Visit our Privacy Policy to learn more. By continuing to use the site, you agree to this use of cookies and data.
  • In Spain
  • List of Countries
  • For 7 days
  • Water Temperature
  • Weather Map
  • Weather Widgets
  • user-avatar
    Login

    Hourly Weather Aleksandria

    Today, 26 February, Wednesday

    Time Temperature Precipitation Wind Pressure Humidity
    00:00 +14°C° 0 mm 3 mps 764 mmHg 84%
    01:00 +14°C° 0 mm 3 mps 764 mmHg 85%
    02:00 +13°C° 0 mm 3 mps 764 mmHg 85%
    03:00 +13°C° 0 mm 3 mps 763 mmHg 85%
    04:00 +13°C° 0 mm 3 mps 763 mmHg 85%
    05:00 +13°C° 0 mm 3 mps 763 mmHg 85%
    06:00 +13°C° 0 mm 3 mps 763 mmHg 83%
    07:00 +14°C° 0 mm 3 mps 764 mmHg 82%
    08:00 +14°C° 0 mm 3 mps 764 mmHg 80%
    09:00 +17°C° 0 mm 3 mps 765 mmHg 72%
    10:00 +18°C° 0 mm 3 mps 765 mmHg 65%
    11:00 +19°C° 0 mm 3 mps 765 mmHg 57%
    12:00 +20°C° 0 mm 3 mps 764 mmHg 53%
    13:00 +21°C° 0 mm 3 mps 764 mmHg 49%
    14:00 +22°C° 0 mm 3 mps 763 mmHg 44%
    15:00 +21°C° 0 mm 2 mps 763 mmHg 44%
    16:00 +21°C° 0 mm 2 mps 763 mmHg 45%
    17:00 +21°C° 0 mm 2 mps 763 mmHg 46%
    18:00 +19°C° 0 mm 2 mps 763 mmHg 52%
    19:00 +18°C° 0 mm 2 mps 764 mmHg 57%
    20:00 +17°C° 0 mm 2 mps 764 mmHg 63%
    21:00 +16°C° 0 mm 3 mps 764 mmHg 67%
    22:00 +14°C° 0 mm 4 mps 764 mmHg 72%
    23:00 +14°C° 0 mm 4 mps 764 mmHg 76%

    Tomorrow, 27 February, Thursday

    Time Temperature Precipitation Wind Pressure Humidity
    00:00 +13°C° 0 mm 4 mps 764 mmHg 78%
    01:00 +13°C° 0 mm 4 mps 764 mmHg 80%
    02:00 +13°C° 0 mm 4 mps 763 mmHg 82%
    03:00 +13°C° 0 mm 4 mps 763 mmHg 80%
    04:00 +13°C° 0 mm 4 mps 763 mmHg 78%
    05:00 +13°C° 0 mm 4 mps 763 mmHg 76%
    06:00 +13°C° 0 mm 4 mps 763 mmHg 71%
    07:00 +14°C° 0 mm 4 mps 764 mmHg 67%
    08:00 +15°C° 0 mm 4 mps 764 mmHg 62%
    09:00 +18°C° 0 mm 4 mps 764 mmHg 53%
    10:00 +20°C° 0 mm 3 mps 764 mmHg 45%
    11:00 +22°C° 0 mm 3 mps 764 mmHg 36%
    12:00 +24°C° 0 mm 3 mps 763 mmHg 35%
    13:00 +24°C° 0 mm 3 mps 763 mmHg 34%
    14:00 +25°C° 0 mm 3 mps 762 mmHg 33%
    15:00 +25°C° 0 mm 3 mps 762 mmHg 34%
    16:00 +24°C° 0 mm 2 mps 762 mmHg 36%
    17:00 +24°C° 0 mm 1 mps 762 mmHg 38%
    18:00 +23°C° 0 mm 1 mps 762 mmHg 40%
    19:00 +22°C° 0 mm 1 mps 762 mmHg 42%
    20:00 +20°C° 0 mm 1 mps 762 mmHg 45%
    21:00 +20°C° 0 mm 1 mps 762 mmHg 47%
    22:00 +18°C° 0 mm 2 mps 762 mmHg 49%
    23:00 +17°C° 0 mm 2 mps 762 mmHg 51%

    Day after tomorrow, 28 February, Friday

    Time Temperature Precipitation Wind Pressure Humidity
    00:00 +17°C° 0 mm 2 mps 762 mmHg 52%
    01:00 +17°C° 0 mm 3 mps 762 mmHg 54%
    02:00 +16°C° 0 mm 3 mps 762 mmHg 55%
    03:00 +16°C° 0 mm 3 mps 762 mmHg 55%
    04:00 +16°C° 0 mm 2 mps 761 mmHg 55%
    05:00 +16°C° 0 mm 2 mps 761 mmHg 56%
    06:00 +17°C° 0 mm 2 mps 761 mmHg 54%
    07:00 +18°C° 0 mm 1 mps 762 mmHg 52%
    08:00 +19°C° 0 mm 1 mps 762 mmHg 50%
    09:00 +19°C° 0 mm 2 mps 762 mmHg 48%
    10:00 +21°C° 0 mm 3 mps 762 mmHg 45%
    11:00 +22°C° 0 mm 4 mps 762 mmHg 43%
    12:00 +22°C° 0 mm 4 mps 762 mmHg 49%
    13:00 +21°C° 0 mm 5 mps 762 mmHg 54%
    14:00 +21°C° 0 mm 5 mps 761 mmHg 60%
    15:00 +20°C° 0 mm 6 mps 761 mmHg 64%
    16:00 +19°C° 0 mm 6 mps 762 mmHg 69%
    17:00 +17°C° 0 mm 7 mps 762 mmHg 74%
    18:00 +16°C° 0 mm 6 mps 762 mmHg 74%
    19:00 +16°C° 0 mm 6 mps 763 mmHg 74%
    20:00 +15°C° 0 mm 6 mps 763 mmHg 75%
    21:00 +15°C° 0 mm 6 mps 763 mmHg 74%
    22:00 +14°C° 0 mm 6 mps 764 mmHg 73%
    23:00 +14°C° 0 mm 6 mps 764 mmHg 72%

    29 February, Saturday

    Time Temperature Precipitation Wind Pressure Humidity
    00:00 +14°C° 0 mm 6 mps 764 mmHg 71%
    01:00 +14°C° 0 mm 6 mps 763 mmHg 70%
    02:00 +14°C° 0 mm 6 mps 763 mmHg 69%
    03:00 +14°C° 0 mm 6 mps 763 mmHg 69%
    04:00 +14°C° 0 mm 6 mps 763 mmHg 69%
    05:00 +13°C° 0 mm 6 mps 763 mmHg 69%
    06:00 +14°C° 0 mm 6 mps 763 mmHg 66%
    07:00 +15°C° 0 mm 6 mps 763 mmHg 63%
    08:00 +15°C° 0 mm 6 mps 763 mmHg 60%
    09:00 +16°C° 0 mm 6 mps 764 mmHg 59%
    10:00 +16°C° 0 mm 6 mps 764 mmHg 57%
    11:00 +17°C° 0 mm 6 mps 764 mmHg 56%
    12:00 +17°C° 0 mm 6 mps 763 mmHg 56%
    13:00 +17°C° 0 mm 6 mps 763 mmHg 57%
    14:00 +17°C° 0 mm 6 mps 763 mmHg 57%
    15:00 +17°C° 0 mm 6 mps 763 mmHg 59%
    16:00 +17°C° 0 mm 6 mps 763 mmHg 61%
    17:00 +17°C° 0 mm 6 mps 763 mmHg 63%
    18:00 +16°C° 0 mm 5 mps 763 mmHg 67%
    19:00 +15°C° 0 mm 4 mps 764 mmHg 70%
    20:00 +15°C° 0 mm 4 mps 764 mmHg 74%
    21:00 +16°C° 0 mm 3 mps 764 mmHg 74%
    22:00 +14°C° 0 mm 3 mps 765 mmHg 74%
    23:00 +14°C° 0 mm 3 mps 765 mmHg 75%

    1 March, Sunday

    Time Temperature Precipitation Wind Pressure Humidity
    00:00 +14°C° 0 mm 3 mps 765 mmHg 75%
    01:00 +14°C° 0 mm 3 mps 764 mmHg 75%
    02:00 +14°C° 0 mm 3 mps 764 mmHg 76%
    03:00 +13°C° 0 mm 3 mps 764 mmHg 76%
    04:00 +13°C° 0 mm 3 mps 764 mmHg 75%
    05:00 +13°C° 0 mm 3 mps 764 mmHg 75%
    06:00 +14°C° 0 mm 3 mps 764 mmHg 72%
    07:00 +16°C° 0 mm 3 mps 765 mmHg 70%
    08:00 +16°C° 0 mm 3 mps 765 mmHg 67%
    09:00 +17°C° 0 mm 3 mps 765 mmHg 62%
    10:00 +18°C° 0 mm 4 mps 765 mmHg 57%
    11:00 +19°C° 0 mm 4 mps 765 mmHg 52%
    12:00 +19°C° 0 mm 4 mps 765 mmHg 52%
    13:00 +19°C° 0 mm 4 mps 764 mmHg 51%
    14:00 +19°C° 0 mm 4 mps 764 mmHg 50%
    15:00 +19°C° 0 mm 4 mps 764 mmHg 53%
    16:00 +18°C° 0 mm 4 mps 764 mmHg 56%
    17:00 +18°C° 0 mm 4 mps 764 mmHg 59%
    18:00 +17°C° 0 mm 3 mps 764 mmHg 63%
    19:00 +16°C° 0 mm 3 mps 765 mmHg 66%
    20:00 +15°C° 0 mm 2 mps 765 mmHg 70%
    21:00 +15°C° 0 mm 2 mps 765 mmHg 72%
    22:00 +15°C° 0 mm 2 mps 765 mmHg 73%
    23:00 +14°C° 0 mm 2 mps 765 mmHg 74%

    2 March, Monday

    Time Temperature Precipitation Wind Pressure Humidity
    00:00 +14°C° 0 mm 1 mps 765 mmHg 75%
    01:00 +14°C° 0 mm 1 mps 765 mmHg 76%
    02:00 +13°C° 0 mm 1 mps 765 mmHg 77%
    03:00 +13°C° 0 mm 1 mps 765 mmHg 78%
    04:00 +13°C° 0 mm 1 mps 764 mmHg 78%
    05:00 +12°C° 0 mm 0 mps 764 mmHg 79%
    06:00 +13°C° 0 mm 1 mps 765 mmHg 77%
    07:00 +14°C° 0 mm 1 mps 765 mmHg 75%
    08:00 +14°C° 0 mm 1 mps 765 mmHg 73%
    09:00 +16°C° 0 mm 1 mps 765 mmHg 67%
    10:00 +18°C° 0 mm 1 mps 765 mmHg 60%
    11:00 +19°C° 0 mm 1 mps 765 mmHg 54%
    12:00 +19°C° 0 mm 2 mps 764 mmHg 52%
    13:00 +19°C° 0 mm 2 mps 764 mmHg 50%
    14:00 +20°C° 0 mm 3 mps 763 mmHg 48%
    15:00 +19°C° 0 mm 3 mps 763 mmHg 51%
    16:00 +18°C° 0 mm 3 mps 763 mmHg 54%
    17:00 +18°C° 0 mm 3 mps 763 mmHg 57%
    18:00 +17°C° 0 mm 3 mps 763 mmHg 61%
    19:00 +16°C° 0 mm 3 mps 763 mmHg 66%
    20:00 +15°C° 0 mm 2 mps 763 mmHg 70%
    21:00 +15°C° 0 mm 2 mps 763 mmHg 72%
    22:00 +14°C° 0 mm 2 mps 764 mmHg 74%
    23:00 +14°C° 0 mm 2 mps 764 mmHg 76%
    Show more